{"data":{"norad_id":40941,"intl_designator":"2015-054B","name":"ARSAT 2","alt_names":[],"object_type":"PAYLOAD","status":"ACTIVE","operator":null,"country":"ARGN","launch_date":"2015-09-30","launch_site_code":"FRGUI","launch_vehicle":null,"mission":null,"orbit_class":"UNKNOWN","rcs_meters":81.4064,"size_class":null,"mass_kg":null,"dimensions":null,"purposes":["comms"],"wikipedia_slug":null,"has_3d_model":false,"image_url":null,"decayed_at":null,"tle_current":{"epoch":"2026-05-25T03:02:38.776416Z","epoch_age_seconds":63382,"freshness":"FRESH","line1":"1 40941U 15054B   26145.12683769 -.00000227  00000+0  00000+0 0  9993","line2":"2 40941   0.0499  80.2522 0002276 329.9293 157.1995  1.00271595 39071","mean_motion":1.00271595,"eccentricity":0.0002276,"inclination_deg":0.0499,"raan_deg":80.2522,"arg_perigee_deg":329.9293,"mean_anomaly_deg":157.1995,"bstar":0,"rev_number":3907,"period_min":1436.0996252229,"perigee_km":35777.051520055,"apogee_km":35796.244930289,"semimajor_km":42164.785225172,"source":"CELESTRAK","updated_at":"2026-05-25T13:38:13.994106Z"}}}